Newport News, VA

3:15 AM EST on February 08, 2016 (GMT -0500)
Newport News-Williamsburg International

Weather History for KPHF - September, 2013

Change the Weather History Date:

Monday, September 16, 2013

  Actual Average Record
Temperature  
Mean Temperature 73 °F -  
Max Temperature 86 °F 81 °F 94 °F (1952)
Min Temperature 64 °F 63 °F 44 °F (1999)
Cooling Degree Days 8    
Growing Degree Days 23 (Base 50)    
Moisture  
Dew Point 61 °F    
Average Humidity 70    
Maximum Humidity 79    
Minimum Humidity 54    
Precipitation  
Precipitation 0.00 in - - ()
Sea Level Pressure  
Sea Level Pressure 30.12 in    
Wind  
Wind Speed 7 mph (West)    
Max Wind Speed 14 mph    
Max Gust Speed -    
Visibility 10 miles    
Events      
Averages and records for this station are not official NWS values.
T = Trace of Precipitation, MM = Missing Value Source: NWS Daily Summary

Daily Weather History Graph

Daily Weather History Graph

Search for Another Location

Airport or City:

Trip Planner

Search our weather history database for the weather conditions in past years. The results will help you decide how hot, cold, wet, or windy it might be!

Date:

Astronomy

Sep. 16, 2013 Rise Set
Actual Time 6:49 AM EDT 7:11 PM EDT
Civil Twilight 6:22 AM EDT 7:37 PM EDT
Nautical Twilight 5:52 AM EDT 8:08 PM EDT
Astronomical Twilight 5:21 AM EDT 8:39 PM EDT
Moon 5:16 PM EDT (9/16) 3:36 AM EDT (9/16)
Length of Visible Light 13h 14m
Length of Day
12h 22m
Waxing Gibbous, 90% of the Moon is Illuminated
Sep 16
Waxing Gibbous
Sep 19
Full
Sep 26
Last Quarter
Oct 4
New
Oct 11
First Quarter

Hourly Weather History & Observations

Time (EDT) Temp. Heat Index Dew Point Humidity Pressure Visibility Wind Dir Wind Speed Gust Speed Precip Events Conditions
12:54 AM 70.0 °F - 57.9 °F 65% 30.14 in 10.0 mi South 5.8 mph - N/A   Clear
1:54 AM 71.1 °F - 59.0 °F 66% 30.13 in 10.0 mi SSW 8.1 mph - N/A   Overcast
2:54 AM 71.1 °F - 60.1 °F 68% 30.13 in 10.0 mi SSW 6.9 mph - N/A   Mostly Cloudy
3:54 AM 71.1 °F - 61.0 °F 70% 30.12 in 10.0 mi SW 5.8 mph - N/A   Mostly Cloudy
4:54 AM 70.0 °F - 61.0 °F 73% 30.11 in 10.0 mi SW 6.9 mph - N/A   Partly Cloudy
5:54 AM 69.1 °F - 61.0 °F 75% 30.10 in 10.0 mi SW 6.9 mph - N/A   Clear
6:54 AM 68.0 °F - 61.0 °F 78% 30.11 in 10.0 mi SW 4.6 mph - N/A   Partly Cloudy
7:42 AM 71.6 °F - 62.6 °F 73% 30.11 in 10.0 mi SW 5.8 mph - N/A   Mostly Cloudy
7:54 AM 72.0 °F - 63.0 °F 73% 30.11 in 10.0 mi SW 4.6 mph - N/A   Overcast
8:20 AM 71.6 °F - 64.4 °F 78% 30.10 in 10.0 mi Variable 3.5 mph - N/A   Overcast
8:43 AM 71.6 °F - 64.4 °F 78% 30.11 in 10.0 mi WSW 10.4 mph - N/A   Overcast
8:54 AM 72.0 °F - 64.9 °F 78% 30.11 in 10.0 mi SW 9.2 mph - N/A   Overcast
9:54 AM 73.0 °F - 66.0 °F 79% 30.12 in 10.0 mi West 10.4 mph - N/A   Overcast
10:54 AM 75.9 °F - 66.0 °F 71% 30.10 in 10.0 mi WSW 9.2 mph - N/A   Mostly Cloudy
11:11 AM 75.2 °F - 66.2 °F 73% 30.10 in 10.0 mi WSW 9.2 mph - N/A   Scattered Clouds
11:54 AM 80.1 °F 82.3 °F 66.9 °F 64% 30.09 in 10.0 mi SW 6.9 mph - N/A   Partly Cloudy
12:54 PM 82.9 °F 85.0 °F 66.0 °F 56% 30.07 in 10.0 mi WSW 5.8 mph - N/A   Clear
2:54 PM 79.0 °F - 61.0 °F 54% 30.06 in 10.0 mi North 13.8 mph - N/A   Scattered Clouds
3:54 PM 75.9 °F - 60.1 °F 58% 30.07 in 10.0 mi North 10.4 mph - N/A   Mostly Cloudy
4:54 PM 75.0 °F - 60.1 °F 60% 30.08 in 10.0 mi North 5.8 mph - N/A   Mostly Cloudy
5:54 PM 75.0 °F - 59.0 °F 57% 30.10 in 10.0 mi North 9.2 mph - N/A   Mostly Cloudy
6:54 PM 72.0 °F - 59.0 °F 64% 30.12 in 10.0 mi North 9.2 mph - N/A   Overcast
7:54 PM 69.1 °F - 57.0 °F 65% 30.14 in 10.0 mi North 4.6 mph - N/A   Mostly Cloudy
8:54 PM 66.9 °F - 57.9 °F 73% 30.17 in 10.0 mi North 4.6 mph - N/A   Mostly Cloudy
9:54 PM 64.9 °F - 57.9 °F 78% 30.18 in 10.0 mi North 4.6 mph - N/A   Scattered Clouds
10:54 PM 64.9 °F - 57.9 °F 78% 30.18 in 10.0 mi NNW 4.6 mph - N/A   Clear
11:54 PM 64.9 °F - 57.9 °F 78% 30.19 in 10.0 mi North 3.5 mph - N/A   Clear